Location: Karaa?a�
(36.7158°N, 30.4165°E)
Time: 07:59:01
(UTC+00:00)

Daily predictions for brighter satellites

Satellite Brightness Start Highest point End
(mag) Time Altitude Azimuth Time Altitude Azimuth Time Altitude Azimuth
SL-8 R/B 3.7 16:44:04 10° NW 16:48:52 83° NE 16:53:37 10° SE
GPS 2-04 Rocket1 4.5 16:47:18 10° S 16:49:54 17° SSE 16:52:34 10° ESE
Ariane Rocket 3.7 16:46:13 10° SE 16:50:43 34° ENE 16:55:14 10° N
HJ-1C 3.8 16:47:41 10° SSE 16:50:51 41° ENE 16:54:03 10° N
Meteor 1-16 Rocket 4.3 16:48:04 10° S 16:53:18 54° E 16:58:41 10° NNE
Cosmos 1943 Rocket 2.6 16:48:53 10° NNW 16:54:24 69° WSW 16:59:57 10° S
CZ-2C R/B 3.8 16:51:23 10° SE 16:55:29 28° ENE 16:59:31 10° NNE
Cosmos 614 Rocket 4.1 16:50:38 10° S 16:55:43 55° ESE 17:00:48 10° NNE
YAOGAN 1 3.3 16:54:30 10° S 16:58:46 58° W 17:03:02 10° NNW
Aureole 1 Rocket 4.3 16:52:10 10° S 16:59:49 58° ESE 17:05:57 10° NNE
Cosmos 1190 Rocket 4.4 16:56:24 10° S 17:01:21 42° ESE 17:06:18 10° NNE
SJ-6B 4.1 17:04:04 10° SE 17:07:24 24° ENE 17:10:45 10° NNE
IRIDIUM 104 4.3 17:03:08 10° N 17:08:19 62° E 17:13:28 10° SSE
STARLINK-29 4.2 17:05:25 10° WSW 17:08:28 43° NW 17:11:33 10° NE
ARGOS Delta rocket 4.1 17:04:22 10° SSE 17:09:35 70° ENE 17:15:02 10° N
Cosmos 2369 Rocket 2.6 17:05:48 10° NNW 17:11:26 67° WSW 17:16:59 10° S
IRIDIUM 114 4.3 17:12:14 10° N 17:17:28 78° E 17:22:40 10° S
Cosmos 2058 Rocket 3.6 17:15:05 10° SSE 17:19:14 37° E 17:23:23 10° NNE
CZ-2C R/B 4.4 17:15:27 10° NNE 17:19:37 32° E 17:23:42 10° SSE
Meteor 1-21 Rocket 4.5 17:15:40 10° NNW 17:21:11 72° W 17:26:42 10° S
Cosmos 1726 Rocket 3.5 17:17:40 10° S 17:22:01 67° E 17:26:26 10° NNE
Hubble Space Telescope 2.2 17:19:55 10° SW 17:23:13 23° S 17:25:18 16° SE
IRIDIUM 103 4.4 17:21:24 10° N 17:26:39 86° W 17:31:51 10° S
Cosmos 2184 Rocket 3.9 17:20:32 10° N 17:26:49 79° E 17:33:00 10° S
Cosmos 407 Rocket 3.4 17:21:49 10° SSW 17:26:58 90° SSE 17:32:07 10° NNE
Cosmos 1461 4.0 17:24:56 10° N 17:29:04 33° NE 17:31:36 20° ESE
Cosmos 1726 3.7 17:25:55 10° SSW 17:29:25 40° W 17:32:58 10° N
Cosmos 676 Rocket 4.3 17:25:30 10° S 17:30:31 46° ESE 17:35:32 10° NNE
Cosmos 921 Rocket 4.1 17:27:58 10° N 17:31:28 25° ENE 17:32:53 21° E
Cosmos 1340 Rocket 2.8 17:28:30 10° S 17:32:28 58° E 17:36:27 10° NNE
Cosmos 1908 3.2 17:28:39 10° S 17:32:30 87° W 17:36:24 10° N
Cosmos 2228 3.2 17:28:56 10° SSW 17:33:12 74° W 17:37:32 10° N
MOS 1 4.3 17:27:39 10° SSE 17:33:13 66° ENE 17:38:50 10° N
Cosmos 1703 3.2 17:29:33 10° N 17:33:32 69° E 17:37:28 10° SSE
Cosmos 1656 Rocket 3.6 17:28:02 10° NNW 17:33:42 87° ENE 17:39:14 10° SSE
Cosmos 1825 Rocket 3.6 17:30:45 10° N 17:35:08 81° W 17:39:27 10° S
Nadezhda 1 Rocket 4.0 17:31:03 10° S 17:37:26 83° E 17:43:48 10° N
FREGAT/IRIS 2.2 17:35:40 18° SSE 17:37:30 84° ENE 17:40:13 10° N
Cosmos 1437 4.1 17:36:01 10° NNW 17:38:50 37° W 17:41:39 10° SSW
Cosmos 1328 3.7 17:36:02 10° N 17:40:02 81° E 17:44:01 10° S
Resurs 01 Rocket 3.0 17:40:10 20° E 17:40:52 21° ENE 17:44:08 10° NNE
SPOT 3 Rocket 3.9 17:42:05 21° SE 17:45:19 46° ENE 17:50:16 10° N
CZ-2C R/B 3.0 17:40:43 10° NNE 17:45:33 39° E 17:50:26 10° SSE
ARGOS 3.1 17:40:27 10° SSE 17:45:50 84° ENE 17:51:15 10° NNW
MOS 1 Rocket 3.9 17:41:17 10° NNE 17:46:29 44° E 17:51:36 10° S
NOSS 3-4 (A) 3.9 17:42:26 10° NNW 17:49:37 72° ENE 17:55:03 22° SE
NOSS 3-4 (C) 3.9 17:42:33 10° NNW 17:49:44 72° ENE 17:55:08 22° SE
Cosmos 2154 Rocket 3.9 17:43:29 10° N 17:49:51 77° E 17:56:08 10° S
GEOS 3 Rocket 3.6 17:46:15 19° SSE 17:50:00 86° SW 17:55:14 10° NW
BREEZE-M DEB (TANK) 4.3 17:45:48 10° WNW 17:50:21 21° WSW 17:52:35 10° SSW
Cosmos 1954 Rocket 3.9 17:46:56 10° S 17:52:09 72° ESE 17:57:21 10° NNE
Cosmos 1953 Rocket 3.9 17:53:43 10° NNW 17:58:11 68° W 18:02:37 10° S
USA 186 3.0 17:58:19 12° S 18:01:13 40° W 18:04:16 10° NNW
Meteor 1-11 4.2 17:57:36 10° N 18:03:21 84° W 18:08:21 13° S
STARLINK-67 4.2 18:07:32 10° NW 18:09:01 27° NNW 18:09:01 27° NNW
USA 234 3.3 18:09:10 10° NE 18:15:32 52° SE 18:21:52 10° SSW
OE (NEXTSAT) 4.4 18:14:08 10° WSW 18:17:28 75° WNW 18:17:28 75° WNW
H-2A R/B 3.5 18:15:32 10° SSW 18:20:18 36° W 18:24:59 10° NNW
ATLAS 5 CENTAUR R/B 4.1 18:18:05 10° W 18:21:14 21° NW 18:24:39 10° N
ATLAS 2AS CENTAUR R/B 3.0 18:14:26 10° NW 18:21:46 67° WSW 18:25:32 28° SSE
GPS 2-04 Rocket1 3.8 18:25:02 10° WSW 18:27:39 35° SW 18:27:39 35° SW
COSMOS 2455 2.7 18:23:12 10° NNW 18:29:15 81° ENE 18:30:47 52° SE
OAO 1 4.4 18:25:14 10° WSW 18:30:43 69° S 18:31:17 64° SE
Abrixas rocket 4.4 18:29:13 10° NW 18:30:32 20° NNW 18:30:32 20° NNW
Spot 2 Rocket 4.1 18:42:04 43° NE 18:42:04 43° NE 18:46:09 10° N
Resurs 1-3 4.2 18:41:31 48° SW 18:42:09 53° W 18:46:27 10° NNW
Cosmos 1850 Rocket 3.8 18:44:15 80° ENE 18:44:15 80° ENE 18:49:13 10° NNE
Cosmos 1300 4.3 18:43:12 24° WSW 18:44:40 33° W 18:48:09 10° NNW
Terra 4.3 18:51:00 11° NE 18:51:00 11° NE 18:51:23 10° NNE
MetOp-B 4.2 18:50:53 66° NE 18:50:53 66° NE 18:55:49 10° N
In-Cosmos 22 Rocket 4.1 18:44:57 10° N 18:50:49 80° E 18:50:57 79° ESE
Hubble Space Telescope 3.6 19:00:32 10° WSW 19:00:38 10° WSW 19:00:38 10° WSW
COSMOS 2406 3.4 19:13:01 67° NW 19:13:01 67° NW 19:18:17 10° NNE
Meteor 2-12 Rocket 4.5 19:08:00 10° N 19:13:27 73° N 19:13:27 73° N
CZ-4C R/B 4.2 19:10:02 10° N 19:15:56 25° NE 19:16:38 25° NE
Resurs 01 Rocket 3.3 19:17:43 30° W 19:17:43 30° W 19:21:04 10° NW
ATLAS 5 CENTAUR R/B 4.2 19:12:53 10° SW 19:55:47 - ESE 19:18:54 36° S
Cosmos 2218 Rocket 4.4 19:15:41 10° NNW 19:21:47 58° W 19:22:17 56° WSW
Cosmos 1697 Rocket 4.1 19:29:32 10° N 19:32:44 31° N 19:32:44 31° N
USA 234 4.2 19:52:18 10° NNE 19:58:24 43° NW 20:04:30 10° WSW
Cosmos 1980 Rocket 4.1 19:59:47 10° N 20:02:02 23° N 20:02:02 23° N
CZ-4C R/B 4.1 20:57:41 10° NNW 21:01:49 38° NW 21:01:49 38° NW
CZ-2D R/B 4.4 23:19:53 10° NNE 23:21:40 21° NNE 23:21:40 21° NNE
SL-16 R/B 4.0 23:48:42 29° NNW 23:48:42 29° NNW 23:51:35 10° NNW
Cosmos 2237 Rocket 4.2 23:44:16 10° N 23:46:25 23° N 23:46:25 23° N
